Date String (YYYY-MM-DD hh:mm:ss) UTC,Instrument flags,Ambient pressure (hPa),Sample flow (lpm),Bypass flow (lpm),Sample temperature (°C),Ambient temperature (°C),ASC tube jacket temperature (°C),LED temperature (°C),Box temperature (°C),Sample RH (%),Span deviation,Mass concentration (μg/m³),Mass concentration (μg/m³),Mass concentration (μg/m³)
DateTimeUTC,F1_M11,P_M11,Q1_M11,Q2_M11,T1_M11,T2_M11,T3_M11,T4_M11,T5_M11,U1_M11,ZSPAN_M11,X2_M11,X0_M11,X1_M11
2023-05-29 20:00:00,,0827.7,5.00,0.00,29.3,27.9,00.0,37.5,31.0,22.3,0000.0,0005.02,0010.88,0003.91
2023-05-29 20:01:00,,0827.7,5.01,0.00,29.3,28.0,00.0,37.5,31.1,22.2,0000.0,0005.03,0010.63,0003.94
2023-05-29 20:02:00,,0827.8,4.99,0.00,29.3,26.8,00.0,37.5,30.9,22.7,0000.0,0005.02,0010.00,0003.96
2023-05-29 20:03:00,,0827.8,5.00,0.00,29.3,25.8,00.0,37.4,30.8,22.0,0000.0,0005.01,0009.93,0003.97
2023-05-29 20:04:00,,0827.8,5.01,0.00,29.2,25.9,00.0,37.4,30.7,19.9,0000.0,0005.02,0010.68,0003.98
2023-05-29 20:05:00,,0827.7,5.01,0.00,29.1,26.1,00.0,37.4,30.7,20.1,0000.0,0005.00,0010.97,0003.99
2023-05-29 20:06:00,,0827.7,5.00,0.00,29.1,26.4,00.0,37.4,30.7,20.3,0000.0,0005.01,0011.26,0004.01
2023-05-29 20:07:00,,0827.8,4.99,0.00,29.1,26.7,00.0,37.4,30.8,19.0,0000.0,0005.02,0011.18,0004.01
2023-05-29 20:08:00,,0827.7,4.99,0.00,29.1,27.0,00.0,37.4,30.8,19.2,0001.0,0005.00,0011.12,0004.00
2023-05-29 20:09:00,,0827.7,5.00,0.00,29.2,27.2,00.0,37.5,30.9,19.6,0003.4,0005.00,0010.95,0004.01
2023-05-29 20:10:00,,0827.7,5.00,0.00,29.2,27.4,00.0,37.5,30.9,20.6,0001.6,0005.04,0010.98,0004.03
2023-05-29 20:11:00,,0827.7,5.01,0.00,29.2,27.6,00.0,37.5,30.9,21.1,0000.5,0005.06,0011.04,0004.03
2023-05-29 20:12:00,,0827.7,5.00,0.00,29.2,27.8,00.0,37.5,31.0,21.0,0000.7,0005.06,0011.50,0004.02
2023-05-29 20:13:00,,0827.8,5.00,0.00,29.3,27.9,00.0,37.5,31.0,19.5,0000.0,0005.05,0011.77,0004.00
2023-05-29 20:14:00,,0827.7,4.99,0.00,29.3,28.0,00.0,37.5,31.1,19.6,0000.0,0005.05,0012.11,0003.98
2023-05-29 20:15:00,,0827.8,5.00,0.00,29.3,27.3,00.0,37.5,31.0,19.1,0000.0,0005.04,0012.34,0003.98
2023-05-29 20:16:00,,0827.7,5.00,0.00,29.3,25.9,00.0,37.4,30.8,19.4,0000.0,0005.05,0012.28,0003.97
2023-05-29 20:17:00,,0827.7,5.00,0.00,29.2,25.8,00.0,37.4,30.7,19.1,0000.0,0005.04,0012.02,0003.96
2023-05-29 20:18:00,,0827.7,5.01,0.00,29.2,26.0,00.0,37.4,30.6,20.0,0000.0,0005.01,0011.83,0003.96
2023-05-29 20:19:00,,0827.7,5.00,0.00,29.1,26.3,00.0,37.4,30.7,20.3,0000.0,0005.02,0011.88,0003.96
2023-05-29 20:20:00,,0827.7,5.01,0.00,29.1,26.6,00.0,37.4,30.7,20.7,0000.0,0005.02,0011.90,0003.95
2023-05-29 20:21:00,,0827.7,4.99,0.00,29.1,26.9,00.0,37.4,30.8,20.0,0000.0,0005.02,0012.00,0003.94
2023-05-29 20:22:00,,0827.6,4.99,0.00,29.2,27.1,00.0,37.5,30.8,20.5,0000.0,0004.96,0011.91,0003.94
2023-05-29 20:23:00,,0827.6,5.00,0.00,29.2,27.4,00.0,37.5,30.9,20.5,0000.0,0004.95,0011.45,0003.92
2023-05-29 20:24:00,,0827.5,5.00,0.00,29.2,27.6,00.0,37.5,30.9,19.8,0000.0,0004.92,0011.72,0003.91
2023-05-29 20:25:00,,0827.6,5.01,0.00,29.2,27.7,00.0,37.5,31.0,20.3,0000.0,0004.95,0011.96,0003.91
2023-05-29 20:26:00,,0827.7,5.00,0.00,29.3,27.9,00.0,37.5,31.0,19.7,0000.0,0005.01,0011.75,0003.92
2023-05-29 20:27:00,,0827.5,5.01,0.00,29.3,28.0,00.0,37.5,31.1,18.9,0000.0,0005.02,0011.06,0003.92
2023-05-29 20:28:00,,0827.5,4.99,0.00,29.3,27.8,00.0,37.5,31.1,19.7,0000.0,0004.97,0010.99,0003.91
2023-05-29 20:29:00,,0827.4,4.99,0.00,29.3,26.3,00.0,37.5,30.9,18.9,0000.0,0004.95,0010.87,0003.89
2023-05-29 20:30:00,,0827.4,5.01,0.00,29.3,25.8,00.0,37.4,30.8,19.2,0000.0,0004.93,0011.03,0003.89
2023-05-29 20:31:00,,0827.4,5.00,0.00,29.2,26.0,00.0,37.4,30.7,19.5,0000.0,0004.88,0010.96,0003.88
2023-05-29 20:32:00,,0827.6,5.00,0.00,29.2,26.3,00.0,37.4,30.7,19.0,0000.0,0004.84,0011.28,0003.86
2023-05-29 20:33:00,,0827.5,5.00,0.00,29.2,26.6,00.0,37.4,30.7,18.6,0000.0,0004.82,0011.55,0003.84
2023-05-29 20:34:00,,0827.6,5.00,0.00,29.2,26.9,00.0,37.5,30.8,18.7,0000.0,0004.79,0011.62,0003.81
2023-05-29 20:35:00,,0827.6,5.00,0.00,29.2,27.1,00.0,37.5,30.8,19.6,0000.0,0004.79,0011.43,0003.80
2023-05-29 20:36:00,,0827.5,5.00,0.00,29.2,27.4,00.0,37.5,30.9,19.7,0000.0,0004.78,0010.99,0003.79
2023-05-29 20:37:00,,0827.4,5.00,0.00,29.2,27.6,00.0,37.5,30.9,19.5,0000.0,0004.69,0010.64,0003.76
2023-05-29 20:38:00,,0827.4,5.00,0.00,29.2,27.7,00.0,37.5,31.0,18.8,0000.0,0004.65,0010.83,0003.74
2023-05-29 20:39:00,,0827.4,5.00,0.00,29.3,27.9,00.0,37.5,31.0,18.3,0000.0,0004.69,0011.25,0003.74
2023-05-29 20:40:00,,0827.4,5.00,0.00,29.3,28.0,00.0,37.5,31.1,18.9,0000.0,0004.69,0011.32,0003.73
2023-05-29 20:41:00,,0827.4,5.00,0.00,29.3,27.5,00.0,37.5,31.0,17.8,0000.0,0004.65,0011.07,0003.70
2023-05-29 20:42:00,,0827.4,4.99,0.00,29.3,26.1,00.0,37.5,30.9,17.7,0000.0,0004.66,0010.92,0003.69
2023-05-29 20:43:00,,0827.4,5.02,0.00,29.3,25.9,00.0,37.4,30.8,17.0,0000.0,0004.64,0010.54,0003.69
2023-05-29 20:44:00,,0827.4,5.00,0.00,29.2,26.1,00.0,37.4,30.7,16.9,0000.0,0004.62,0010.39,0003.68
2023-05-29 20:45:00,,0827.4,5.00,0.00,29.2,26.4,00.0,37.4,30.7,16.5,0000.0,0004.63,0010.40,0003.69
2023-05-29 20:46:00,,0827.4,5.00,0.00,29.2,26.7,00.0,37.5,30.8,17.3,0000.0,0004.61,0010.25,0003.69
2023-05-29 20:47:00,,0827.4,4.99,0.00,29.2,27.0,00.0,37.5,30.8,17.3,0000.0,0004.57,0009.99,0003.68
2023-05-29 20:48:00,,0827.4,5.00,0.00,29.2,27.2,00.0,37.5,30.9,16.9,0000.0,0004.57,0009.92,0003.68
2023-05-29 20:49:00,,0827.3,5.00,0.00,29.2,27.4,00.0,37.5,30.9,16.5,0000.0,0004.61,0009.83,0003.67
2023-05-29 20:50:00,,0827.3,5.01,0.00,29.2,27.6,00.0,37.5,31.0,16.2,0000.0,0004.56,0009.34,0003.66
2023-05-29 20:51:00,,0827.4,5.00,0.00,29.3,27.8,00.0,37.5,31.0,17.5,0000.0,0004.54,0009.30,0003.67
2023-05-29 20:52:00,,0827.4,4.99,0.00,29.3,27.9,00.0,37.5,31.1,17.9,0000.0,0004.55,0009.93,0003.68
2023-05-29 20:53:00,,0827.4,4.99,0.00,29.3,28.0,00.0,37.6,31.1,17.7,0000.0,0004.52,0009.97,0003.67
2023-05-29 20:54:00,,0827.4,4.99,0.00,29.4,28.0,00.0,37.6,31.1,17.9,0000.0,0004.51,0009.85,0003.66
2023-05-29 20:55:00,,0827.4,5.00,0.00,29.4,26.6,00.0,37.5,30.9,17.3,0000.0,0004.52,0009.51,0003.66
2023-05-29 20:56:00,,0827.4,5.00,0.00,29.3,25.9,00.0,37.4,30.8,17.7,0000.0,0004.55,0009.52,0003.67
2023-05-29 20:57:00,,0827.4,5.00,0.00,29.3,26.1,00.0,37.4,30.8,18.4,0000.0,0004.56,0009.53,0003.68
2023-05-29 20:58:00,,0827.4,5.01,0.00,29.2,26.3,00.0,37.5,30.8,18.6,0000.0,0004.58,0009.71,0003.68
2023-05-29 20:59:00,,0827.4,4.99,0.00,29.2,26.6,00.0,37.5,30.8,18.5,0000.0,0004.58,0009.72,0003.68
